Find Starlink 11273

NORAD ID: 60913 Int'l Des: 2024-154 Owner: SPXS Country: US Constellation: starlink operational
LEOCIRCULAR

リアルタイム位置

3D地球を読み込み中...

Starlink 11273について

説明を読み込み中...

次回通過

Passes for default location (London). Set your location on the main map for personalized predictions.

高度履歴

Loading altitude history...

軌道要素

1 60913U 24154L 26125.21573897 .00001767 00000-0 19426-4 0 9990
2 60913 53.1598 212.5188 0000730 89.4457 270.6644 15.69718215 97387
Epoch: May 5, 2026 • Age: 9 hours

現在のステータス

高度 368.7 km
速度 7.69 km/s
衛星直下点 -28.92°S, 110.06°E
打ち上げ日 Aug 31, 2024
運用期間 1.6 years
タイプ internet

技術仕様

分類 Payload
質量 960.00 kg
乾燥質量 910.00 kg
総質量 960.00 kg
長さ 0.30 m
直径 4.10 m
スパン 29.00 m
形状 Box + pan
製造者 SPXS
バスタイプ Starlink V2MD
フェーズステータス In Orbit
所有者/国 SPXS/US

Most Searched